Regional Weather Roundup
Issued by NWS Green Bay, WI

Home | Current Version | Previous Version | Text Only | Print | Product List | Glossary On
Versions: 1 2 3 4 5 6 7 8 9 10 11 12 13 14 15 16 17 18 19 20 21 22 23 24 25 26 27 28 29 30 31 32 33 34 35 36 37 38 39 40 41 42 43 44 45 46 47 48 49 50
000
ASUS43 KGRB 040911
RWRGRB

NORTH-CENTRAL AND NORTHEAST WISCONSIN REGIONAL WEATHER ROUNDUP
NATIONAL WEATHER SERVICE GREEN BAY WI
400 AM CDT TUE AUG 04 2015

WIZ005-009-010>012-018-019-041000-
NORTH CENTRAL WISCONSIN

CITY           SKY/WX    TMP DP  RH WIND       PRES   REMARKS
IRONWOOD       CLOUDY    57  55  94 W7        29.87R
MANITOWISH WTR CLOUDY    53  53 100 W3        29.90S
ARBOR VITAE    PTCLDY    57  55  94 CALM      29.91R
EAGLE RIVER    CLOUDY    54  54 100 W5        29.90R
LAND O LAKES   MOCLDY    56  56  97 W5        29.90S
RHINELANDER    CLEAR     56  53  90 W6        29.91R
PHILLIPS       MOCLDY    55  53  94 CALM      29.91S
ANTIGO         CLEAR     54  53  97 W5        29.90S
TOMAHAWK       PTCLDY    53  52  95 W3        29.92R
MERRILL        NOT AVBL
$$

WIZ013-073-041000-
NORTHEAST WISCONSIN

CITY           SKY/WX    TMP DP  RH WIND       PRES   REMARKS
IRON MOUNTAIN  PTCLDY    57  54  89 CALM      29.85S
MARINETTE      CLOUDY    61  54  77 NW3       29.86R
OCONTO         CLOUDY    56  56 100 CALM      29.87R
$$

WIZ017-030-035>037-045-041000-
CENTRAL WISCONSIN

CITY           SKY/WX    TMP DP  RH WIND       PRES   REMARKS
MEDFORD        CLEAR     54  52  94 W5        29.93R
WAUSAU         CLEAR     61  55  81 NW6       29.89R
MOSINEE        CLEAR     59  54  82 NW7       29.91S
MARSHFIELD     CLEAR     58  51  78 W7        29.92R
WISC RAPIDS    CLOUDY    60  52  74 W3        29.93R
STEVENS POINT  CLEAR     59  53  80 W5        29.91S
WAUPACA        MOCLDY    61  55  81 W3        29.90S
SHAWANO        PTCLDY    57  55  91 CALM      29.89S
CLINTONVILLE   PTCLDY    55  54  94 CALM      29.89S
$$

WIZ038-039-048-051-041000-
FOX VALLEY

CITY           SKY/WX    TMP DP  RH WIND       PRES   REMARKS
NWS GREEN BAY  MOCLDY    58  55  90 W3        29.88S
APPLETON       CLOUDY    59  52  77 W7        29.90R
OSHKOSH        PTCLDY    61  52  72 W6        29.89R
FOND DU LAC    CLEAR     58  52  80 SW7       29.90R
$$

WIZ022-050-052-041000-
EAST CENTRAL WISCONSIN

CITY           SKY/WX    TMP DP  RH WIND       PRES   REMARKS
STURGEON BAY   CLOUDY    59  54  82 W3        29.89S
MANITOWOC      CLEAR     59  55  87 MISG      29.89R
SHEBOYGAN      PTCLDY    56  54  93 W5        29.89S
$$

LMZ563-521-522-541>543-041000-
LAKESHORE

STATION/POSITION TIME  TEMP    WIND        PRES    VSBY  WAVE
                       AIR SEA DIR/SP/G                  HT/PER
                 (UTC) (F)     (DEG/KT/KT) (MB)    (MI)  (FT/S)
SHEBOYGAN LKSHOR 0900   63     260/  8/  9 1012.1R
KEWAUNEE LKSHORE 0800   60     290/  3/  5 1011.0S
ALGOMA MARINA    0812           CALM  /  4   N/A
NORTHPORT PIER   0800   64     300/  7/ 11 1010.5S
N MID LAKE BUOY  0850   64 67  280/ 12/ 14 1009.8R         1/ 3
S GREEN BAY BUOY 0900   63 71  260/  8/ 10 1012.9R
SISTER BAY LKSHO 0818   64     310/ 15/ 17   N/A
CHAMBERS ISLAND  0840   62     250/  2/  8 1011.2R
MENOMINEE LKSHOR 0800   62     260/  7/ 10 1011.7F
$$


USA.gov is the U.S. government's official web portal to all federal, state and local government web resources and services.